Hourly Data Report for September 21, 2019

SAINT JOHN A
NEW BRUNSWICK
Current Station Operator: NAVCAN

45°18'58.000" N
65°53'24.000" W
108.80 m
8104901
71609
YSJ

Download Data

Hourly Data (September 2019)
Hourly Data Report for September 21, 2019
TIME
LST
Temp Definition
°C
Dew Point Definition
°C
Rel Hum Definition
%
Precip. Amount Definition
mm

Wind Dir Definition
10's deg

Wind Spd Definition
km/h
Visibility Definition
km
Stn Press Definition
kPa
Hmdx Definition


Wind Chill Definition


Weather Definition


00:00 15.8 14.3 91   32 4 24.1 100.13     LegendNANA
01:00 17.3 15.3 88   33 19 24.1 100.14     LegendNANA
02:00 16.8 15.2 90   33 21 24.1 100.15     Mainly Clear
03:00 17.3 15.4 88   34 14 24.1 100.21     LegendNANA
04:00 16.5 14.9 90   34 14 24.1 100.26     LegendNANA
05:00 16.0 14.6 91   35 15 24.1 100.30     Mainly Clear
06:00 15.4 14.2 93   36 17 24.1 100.38     LegendNANA
07:00 15.6 14.2 92   35 15 24.1 100.45     LegendNANA
08:00 16.8 14.0 83   36 22 24.1 100.53     Mainly Clear
09:00 17.8 11.9 68   1 27 24.1 100.60     LegendNANA
10:00 18.7 10.0 57   1 25 24.1 100.68     LegendNANA
11:00 19.8 10.9 56   2 13 24.1 100.70     Clear
12:00 20.3 10.4 52   36 9 24.1 100.67     LegendNANA
13:00 21.1 9.7 48   3 13 24.1 100.66     LegendNANA
14:00 21.5 8.8 44   2 18 24.1 100.65     Mainly Clear
15:00 21.6 7.5 40   33 22 24.1 100.63     LegendNANA
16:00 21.3 8.5 43   33 10 24.1 100.62     LegendNANA
17:00 20.7 9.8 49   34 8 24.1 100.65     Mostly Cloudy
18:00 19.4 11.3 59   26 7 24.1 100.64     LegendNANA
19:00 14.8 11.2 79   19 7 24.1 100.68     LegendNANA
20:00 11.9 10.0 88   22 4 24.1 100.74     Mainly Clear
21:00 8.4 7.9 97   7 3 24.1 100.76     LegendNANA
22:00 8.4 8.0 97   18 8 24.1 100.79     LegendNANA
23:00 7.6 7.6 100   4 5 24.1 100.81     Clear

Notes on Data Quality.

Legend

  • E = Estimated
  • M = Missing
  • NA = Not Available*
  • [empty] = Indicates an unobserved value
Date modified: